Location: Earls Croome
(52.0667°N, 2.2000°W)
Time: 18:15:52
(UTC+00:00)

COSMOS 2455 - Pass Details

Date: 17 November 2019
Orbit: 902 x 908 km, 67.1° (Epoch: 08 December)

Event Time Altitude Azimuth Distance (km) Brightness Sun altitude
Exits shadow 04:40:31 52° 325° (NW) 1,123 3.1 -26.0°
Maximum altitude 04:42:07 87° 50° (NE) 916 2.8 -25.7°
Drops below altitude 10° 04:48:09 10° 143° (SE) 2,585 5.7 -24.8°
Sets 04:50:39 0° 143° (SE) 3,522 6.4 -24.4°
